Location: Bacharowice
(49.9333°N, 19.5833°E)
Time: 07:31:29
(UTC+00:00)

N. Korean satellite - Visible Passes

Search period start: 04 October 2022 00:00
Search period end: 14 October 2022 00:00
Orbit: 426 x 468 km, 97.3° (Epoch: 03 October)

Date Brightness Start Highest point End Pass type
(mag) Time Alt. Az. Time Alt. Az. Time Alt. Az.
04 Oct 9.7 03:03:52 10° ENE 03:05:40 14° E 03:07:27 10° SE visible
05 Oct 6.8 03:59:25 10° NNE 04:02:41 66° ESE 04:05:56 10° S visible
06 Oct 9.0 03:23:50 10° NE 03:26:32 23° E 03:29:13 10° SSE visible
08 Oct 7.8 03:43:59 10° NNE 03:47:07 41° E 03:50:13 10° S visible
09 Oct 9.6 03:08:38 10° NE 03:10:43 16° E 03:12:48 10° SE visible
10 Oct 6.5 04:04:07 10° NNE 04:07:24 77° ESE 04:10:40 10° S visible
11 Oct 8.8 03:28:10 10° NE 03:31:00 26° E 03:33:48 10° SSE visible
12 Oct 10.1 02:53:44 10° ENE 02:54:21 10° E 02:54:58 10° E visible
12 Oct 6.4 04:24:09 10° N 04:27:24 58° WNW 04:30:38 10° SSW visible
13 Oct 7.5 03:47:47 10° NNE 03:50:58 46° E 03:54:09 10° S visible
